[[{"header":{"parameterUnit":"m.s-1","parameterCategory":2,"la1":30.2991,"la2":30.254,"lo1":-89.0895,"lo2":-89.0444,"dy":0.0017,"dx":0.0017,"nx":28,"ny":28,"refTime":"2025-04-14T21:00:00:Z","depth":"0","parameterNumber":2,"parameterNumberName":"U-component_of_CURRENTS"},"data":[0,0,0,0,0,0,0,0,0,0,0,0,0,0,0,0,0,0,0,0,0,0,0,0,0,0,0,0,0,0,0,0,0,0,0,0,0,0,0,0,0,0,0,0,0,0,0,0,0,0,0,0,0,0,0,0,0,0,0.2737,0.2737,0,0.2744,0.2744,0.2744,0.2727,0.2727,0.2727,0.2727,0.2743,0.2743,0.2744,0,0,0,0,0,0,0,0,0,0,0,0,0,0.2718,0.2718,0.2737,0.2738,0.2738,0.2744,0.2744,0.2744,0.2727,0.2727,0.2727,0.2727,0.2742,0.2743,0.2744,0,0,0,0,0,0,0,0,0,0,0,0,0,0.2723,0.2718,0.2737,0.2733,0.2733,0.2744,0.2744,0.2744,0.2727,0.2727,0.2727,0.2726,0.2742,0.2743,0.2744,0.2756,0,0,0.2747,0.2747,0,0,0,0,0,0,0,0,0.2722,0.2723,0.2733,0.2733,0.2733,0.2737,0.2743,0.275,0.2727,0.2726,0.2727,0.2726,0.2744,0.2745,0.2742,0.2757,0.2758,0.2747,0.2748,0.2748,0.2748,0,0,0,0,0,0,0,0.2722,0.2723,0.2736,0.2734,0.2734,0.2734,0.2734,0.2744,0.2734,0.2726,0.2726,0.2732,0.2744,0.2741,0.2742,0.2758,0.2747,0.2748,0.2748,0.2749,0.2849,0.2851,0,0,0,0,0,0,0.2728,0.2722,0.2736,0.2737,0.2731,0.2735,0.2734,0.2734,0.2734,0.2735,0.2732,0.2731,0.274,0.2741,0.2743,0.2814,0.2748,0.2749,0.2749,0.2847,0.285,0.2852,0,0,0,0,0,0,0.2727,0.2729,0.2736,0.2733,0.2734,0.2736,0.2735,0.2734,0.2736,0.2739,0.2739,0.2735,0.274,0.2742,0.2775,0.2812,0.2749,0.275,0.2845,0.2848,0.2851,0.292,0,0,0,0,0,0,0.2727,0.2728,0.2727,0.2733,0.2735,0.2745,0.2736,0.2735,0.2741,0.274,0.2742,0.2743,0.2739,0.2774,0.2776,0.2812,0.2751,0.2842,0.2846,0.285,0.2915,0.2925,0.2934,0,0,0,0,0,0.2726,0.2716,0.2727,0.2729,0.2734,0.2745,0.2746,0.2744,0.2742,0.2743,0.2761,0.2743,0.28,0.2776,0.2778,0.2816,0.284,0.2845,0.285,0.2911,0.2923,0.2933,0,0,0,0,0,0,0.2688,0.2715,0.2726,0.272,0.2738,0.2744,0.2739,0.2749,0.2762,0.2759,0.2766,0.2769,0.2811,0.2807,0.278,0.2859,0.2819,0.2824,0.2865,0.2876,0.2885,0.2877,0.2752,0,0,0,0,0,0.2687,0.2694,0.272,0.2714,0.2724,0.2737,0.2741,0.2745,0.276,0.2763,0.2776,0.2797,0.2831,0.2848,0.2862,0.2904,0.2928,0.2933,0.2942,0.295,0.2947,0.3024,0.304,0.2868,0.2868,0.2868,0,0,0.2666,0.2685,0.2685,0.2709,0.2717,0.2742,0.2737,0.2742,0.2772,0.2765,0.2802,0.2822,0.2848,0.2898,0.2917,0.29,0.3019,0.2956,0.2962,0.2955,0.3031,0.3047,0.3062,0.2871,0.287,0.287,0,0,0.264,0.2651,0.2658,0.2685,0.2713,0.2731,0.2739,0.276,0.2777,0.2822,0.2835,0.2881,0.2918,0.2956,0.298,0.305,0.3061,0.3058,0.3105,0.3181,0.3196,0.3209,0.3291,0.3311,0.307,0.307,0.307,0,0.2616,0.2638,0.2658,0.2684,0.2712,0.2733,0.2758,0.2783,0.2817,0.2853,0.2839,0.2939,0.295,0.3043,0.3067,0.3071,0.3117,0.3059,0.3193,0.3206,0.3219,0.3299,0.332,0.3074,0.3073,0.3073,0.3073,0,0.2611,0.2637,0.264,0.2694,0.2723,0.2742,0.2795,0.2828,0.2858,0.2898,0.2982,0.3013,0.3076,0.3097,0.3102,0.3206,0.3214,0.3191,0.3162,0.324,0.3321,0.3341,0.3079,0.3078,0.3077,0.3076,0,0,0.2541,0.2623,0.2628,0.2673,0.2736,0.2763,0.2823,0.2897,0.2958,0.3,0.3087,0.315,0.317,0.3198,0.3222,0.3287,0.3417,0.3278,0.328,0.3356,0.3605,0.3599,0.3621,0.3424,0.3427,0.343,0.3638,0,0.2536,0.2593,0.264,0.2706,0.2744,0.2807,0.2874,0.2947,0.3009,0.3096,0.3157,0.3236,0.3212,0.3255,0.3317,0.3386,0.347,0.3364,0.3521,0.3526,0.3507,0.3643,0.3447,0.3614,0.3658,0.3661,0.3663,0,0.2526,0.2575,0.2633,0.2749,0.2772,0.2819,0.2942,0.3007,0.3132,0.3183,0.3268,0.3313,0.3422,0.3381,0.3549,0.3486,0.3551,0.36,0.3609,0.3587,0.3557,0.3538,0.3649,0.3543,0.3695,0.3692,0.369,0,0.2483,0.2579,0.2631,0.2667,0.2787,0.2837,0.2909,0.3031,0.3103,0.3242,0.3314,0.3428,0.3509,0.3593,0.3689,0.3632,0.3879,0.3812,0.3878,0.3879,0.3731,0.3713,0.3746,0.3945,0.3944,0.3944,0.3943,0,0.2467,0.2509,0.262,0.2648,0.2727,0.2829,0.2923,0.3011,0.315,0.3249,0.3355,0.3447,0.3566,0.3708,0.3758,0.3905,0.3945,0.3921,0.3944,0.3754,0.3736,0.3649,0.3596,0.3951,0.395,0.3948,0.3947,0,0.2395,0.2469,0.2534,0.2662,0.2701,0.2758,0.2903,0.2981,0.313,0.3263,0.3314,0.3502,0.3679,0.382,0.3992,0.4015,0.403,0.4178,0.3956,0.3949,0.385,0.3808,0.3797,0.3682,0.4264,0.4265,0.4266,0,0.2365,0.239,0.2508,0.2551,0.2602,0.2701,0.277,0.293,0.3021,0.3279,0.3344,0.3575,0.3704,0.3992,0.4083,0.4236,0.4094,0.4143,0.3981,0.3857,0.3828,0.3699,0.3591,0.383,0.3827,0.3825,0.3823,0,0.2305,0.2341,0.2395,0.2475,0.2546,0.2619,0.2739,0.2805,0.3016,0.3145,0.3333,0.3463,0.3763,0.3834,0.4074,0.4117,0.3919,0.4104,0.4022,0.3545,0.3359,0.3252,0.3696,0.3804,0.3806,0.3808,0.3809,0.3809,0.2259,0.2264,0.2341,0.2401,0.2475,0.2536,0.2554,0.2705,0.2826,0.3008,0.3207,0.3349,0.356,0.3846,0.3896,0.3854,0.3843,0.3706,0.3691,0.3593,0.3389,0.3813,0.3913,0.3915,0.3917,0.3919,0.3921,0,0.2206,0.2219,0.2274,0.2333,0.2348,0.2424,0.2527,0.253,0.2614,0.2833,0.2978,0.3159,0.328,0.3438,0.3541,0.3448,0.3283,0.3345,0.3071,0.3002,0.342,0.3304,0.3217,0.3217,0.3217,0.3217,0.3217,0.3217,0.2187,0.2184,0.2193,0.2189,0.2219,0.2194,0.2212,0.2255,0.2372,0.249,0.2592,0.275,0.3056,0.3257,0.3207,0.3125,0.2874,0.2767,0.2796,0.3037,0.3066,0.3094,0.2971,0.2816,0.2815,0.2201,0.2196,0.2192]},{"header":{"parameterUnit":"m.s-1","parameterCategory":2,"la1":30.2991,"la2":30.254,"lo1":-89.0895,"lo2":-89.0444,"dy":0.0017,"dx":0.0017,"nx":28,"ny":28,"refTime":"2025-04-14T21:00:00:Z","depth":"0","parameterNumber":3,"parameterNumberName":"V-component_of_CURRENTS"},"data":[0,0,0,0,0,0,0,0,0,0,0,0,0,0,0,0,0,0,0,0,0,0,0,0,0,0,0,0,0,0,0,0,0,0,0,0,0,0,0,0,0,0,0,0,0,0,0,0,0,0,0,0,0,0,0,0,0,0,-0.0586,-0.0587,0,-0.0703,-0.0704,-0.0705,-0.076,-0.0761,-0.0761,-0.0761,-0.0935,-0.0939,-0.0944,0,0,0,0,0,0,0,0,0,0,0,0,0,-0.0445,-0.0447,-0.0586,-0.0588,-0.0589,-0.0702,-0.0704,-0.0705,-0.076,-0.0761,-0.0761,-0.0761,-0.0934,-0.0939,-0.0944,0,0,0,0,0,0,0,0,0,0,0,0,0,-0.0526,-0.0447,-0.0586,-0.0632,-0.0638,-0.0702,-0.0704,-0.0705,-0.076,-0.0761,-0.0761,-0.0761,-0.0932,-0.0938,-0.0945,-0.0981,0,0,-0.0965,-0.0968,0,0,0,0,0,0,0,0,-0.0521,-0.053,-0.0624,-0.0629,-0.0636,-0.072,-0.0718,-0.0801,-0.076,-0.0711,-0.0761,-0.0761,-0.087,-0.0882,-0.0898,-0.0989,-0.0996,-0.0966,-0.097,-0.0973,-0.0975,0,0,0,0,0,0,0,-0.0515,-0.0526,-0.0629,-0.0626,-0.0633,-0.066,-0.0671,-0.0734,-0.0786,-0.0715,-0.072,-0.0737,-0.0873,-0.0892,-0.0903,-0.0999,-0.0966,-0.0972,-0.0976,-0.0979,-0.1129,-0.1129,0,0,0,0,0,0,-0.0505,-0.0521,-0.0626,-0.0633,-0.0581,-0.0662,-0.0674,-0.069,-0.0785,-0.08,-0.0737,-0.074,-0.088,-0.0895,-0.091,-0.0938,-0.0973,-0.0979,-0.0983,-0.1129,-0.1129,-0.1129,0,0,0,0,0,0,-0.0501,-0.0513,-0.0621,-0.0582,-0.0598,-0.0664,-0.0681,-0.0692,-0.0711,-0.0801,-0.0817,-0.0744,-0.0881,-0.09,-0.0954,-0.0946,-0.0982,-0.0988,-0.1129,-0.1129,-0.1129,-0.1008,0,0,0,0,0,0,-0.0496,-0.0511,-0.0511,-0.0581,-0.06,-0.0642,-0.0682,-0.0695,-0.0722,-0.0727,-0.0813,-0.0829,-0.0883,-0.0943,-0.0961,-0.0956,-0.0994,-0.1129,-0.1129,-0.1129,-0.1012,-0.1004,-0.0997,0,0,0,0,0,-0.0491,-0.0486,-0.051,-0.0523,-0.06,-0.0642,-0.0652,-0.07,-0.0722,-0.0719,-0.0779,-0.0826,-0.0956,-0.0948,-0.0969,-0.0966,-0.1129,-0.1129,-0.1129,-0.1016,-0.1006,-0.0997,0,0,0,0,0,0,-0.0408,-0.0494,-0.0521,-0.0539,-0.0581,-0.0652,-0.0655,-0.0694,-0.0738,-0.0741,-0.0827,-0.0847,-0.0889,-0.0948,-0.0938,-0.1011,-0.1051,-0.1055,-0.0958,-0.0949,-0.0942,-0.0886,-0.0999,0,0,0,0,0,-0.0396,-0.0422,-0.0495,-0.0503,-0.0523,-0.0588,-0.0611,-0.0642,-0.0697,-0.0716,-0.0779,-0.0847,-0.0906,-0.0941,-0.0998,-0.1041,-0.1056,-0.1055,-0.1047,-0.104,-0.1009,-0.1034,-0.1024,-0.1128,-0.1128,-0.1128,0,0,-0.0364,-0.0414,-0.0427,-0.0489,-0.0525,-0.0541,-0.06,-0.0623,-0.0632,-0.073,-0.0754,-0.0821,-0.091,-0.0949,-0.0975,-0.0998,-0.1015,-0.104,-0.1033,-0.1005,-0.1033,-0.1022,-0.1013,-0.1128,-0.1128,-0.1128,0,0,-0.0316,-0.0358,-0.0366,-0.04,-0.0454,-0.0493,-0.0497,-0.0564,-0.0586,-0.0625,-0.0694,-0.0748,-0.0844,-0.0896,-0.0939,-0.0929,-0.097,-0.0959,-0.088,-0.0905,-0.0895,-0.0887,-0.0868,-0.0859,-0.096,-0.096,-0.0959,0,-0.0271,-0.03,-0.0367,-0.0379,-0.0399,-0.0468,-0.0466,-0.0496,-0.0568,-0.0576,-0.0614,-0.0729,-0.0813,-0.0855,-0.0853,-0.0908,-0.0911,-0.0904,-0.089,-0.0883,-0.0877,-0.0859,-0.0851,-0.0954,-0.0954,-0.0955,-0.0956,0,-0.0237,-0.0256,-0.0255,-0.03,-0.0323,-0.0329,-0.0386,-0.0396,-0.0437,-0.0473,-0.0512,-0.0615,-0.0681,-0.0726,-0.079,-0.0794,-0.0804,-0.087,-0.0901,-0.0858,-0.0844,-0.0837,-0.0945,-0.0948,-0.0949,-0.0951,0,0,-0.0149,-0.022,-0.0219,-0.0226,-0.0283,-0.0293,-0.0294,-0.0316,-0.0294,-0.0367,-0.0352,-0.047,-0.0515,-0.0566,-0.0657,-0.0685,-0.0656,-0.0747,-0.0751,-0.0703,-0.0664,-0.0647,-0.0639,-0.0715,-0.0714,-0.0713,-0.0661,0,-0.0099,-0.0105,-0.0157,-0.0141,-0.0145,-0.0198,-0.019,-0.0211,-0.0233,-0.0227,-0.032,-0.0351,-0.0459,-0.0489,-0.053,-0.0625,-0.0637,-0.0661,-0.0734,-0.0734,-0.0706,-0.0631,-0.064,-0.0593,-0.0655,-0.0654,-0.0654,0,-0.005,-0.0064,-0.0047,-0.0068,-0.007,-0.006,-0.0042,-0.0045,-0.0053,-0.0071,-0.0105,-0.0176,-0.0233,-0.0336,-0.0433,-0.0439,-0.0528,-0.06,-0.0602,-0.0618,-0.0706,-0.0655,-0.0579,-0.0762,-0.0644,-0.0645,-0.0646,0,0.0037,0.0016,0.0034,0.0026,-0.0002,0.0019,0.0016,0.0018,0.0048,0.0039,0.0075,-0.002,-0.0045,-0.0168,-0.0323,-0.0376,-0.0403,-0.0511,-0.0567,-0.0566,-0.0602,-0.0606,-0.0691,-0.0559,-0.056,-0.056,-0.056,0,0.01,0.0118,0.0085,0.0097,0.0155,0.0105,0.0183,0.0173,0.02,0.0277,0.0168,0.0213,-0.0003,-0.0058,-0.0229,-0.034,-0.0334,-0.0507,-0.0544,-0.0559,-0.056,-0.0747,-0.0861,-0.0558,-0.0558,-0.0559,-0.0559,0,0.0191,0.0159,0.019,0.0183,0.0195,0.0244,0.0291,0.0354,0.0362,0.0468,0.047,0.0411,0.0342,0.0154,-0.0028,-0.0193,-0.0426,-0.0384,-0.0358,-0.0393,-0.0638,-0.0744,-0.0841,-0.09,-0.0431,-0.043,-0.0429,0,0.0227,0.0252,0.0276,0.0317,0.0322,0.0384,0.0438,0.0439,0.052,0.0603,0.0674,0.0637,0.0639,0.0411,0.0108,-0.0133,-0.0351,-0.032,-0.0445,-0.0604,-0.0752,-0.0844,-0.0895,-0.0439,-0.0439,-0.0438,-0.0438,0,0.0308,0.0324,0.0352,0.0441,0.0504,0.0579,0.0661,0.0744,0.0784,0.0882,0.0996,0.1003,0.0798,0.0551,0.0213,0.0003,-0.0446,-0.0317,-0.051,-0.0761,-0.084,-0.093,-0.0495,-0.0434,-0.0434,-0.0434,-0.0435,-0.0435,0.0376,0.0427,0.0474,0.0568,0.0649,0.0766,0.0851,0.0956,0.1094,0.124,0.1231,0.1277,0.09,0.0439,0.0156,-0.0385,-0.04,-0.0595,-0.0702,-0.0772,-0.0857,-0.0373,-0.0349,-0.0349,-0.0349,-0.0349,-0.0349,0,0.0443,0.0502,0.0595,0.0698,0.0812,0.0832,0.0993,0.1091,0.1272,0.1394,0.1484,0.1316,0.0858,0.0365,-0.034,-0.072,-0.0884,-0.0938,-0.1106,-0.1134,-0.0727,-0.0759,-0.0789,-0.0789,-0.0788,-0.0788,-0.0788,-0.0788,0.0475,0.0572,0.0623,0.0814,0.0901,0.1049,0.1144,0.1301,0.1419,0.1562,0.1577,0.1552,0.1166,-0.0083,-0.0942,-0.1142,-0.1423,-0.1475,-0.1583,-0.1369,-0.1347,-0.1326,-0.1383,-0.1544,-0.1545,-0.1957,-0.1962,-0.1965]}],[{"header":{"parameterUnit":"m.s-1","parameterCategory":2,"la1":30.2991,"la2":30.254,"lo1":-89.0895,"lo2":-89.0444,"dy":0.0017,"dx":0.0017,"nx":28,"ny":28,"refTime":"2025-04-14T21:00:00:Z","depth":"2","parameterNumber":2,"parameterNumberName":"U-component_of_CURRENTS"},"data":[0,0,0,0,0,0,0,0,0,0,0,0,0,0,0,0,0,0,0,0,0,0,0,0,0,0,0,0,0,0,0,0,0,0,0,0,0,0,0,0,0,0,0,0,0,0,0,0,0,0,0,0,0,0,0,0,0,0,0.2343,0.2343,0,0.2383,0.2384,0.2384,0.2421,0.2421,0.2421,0.2421,0.2572,0.2575,0.2579,0,0,0,0,0,0,0,0,0,0,0,0,0,0.2296,0.2297,0.2343,0.2343,0.2343,0.2383,0.2384,0.2384,0.2421,0.2421,0.2421,0.2421,0.257,0.2575,0.258,0,0,0,0,0,0,0,0,0,0,0,0,0,0.2327,0.2297,0.2343,0.2364,0.2366,0.2383,0.2384,0.2385,0.2421,0.2421,0.2421,0.2421,0.2569,0.2574,0.258,0.2612,0,0,0.2598,0.2601,0,0,0,0,0,0,0,0,0.2326,0.233,0.236,0.2362,0.2364,0.2394,0.2422,0.2465,0.2421,0.2403,0.2421,0.2421,0.252,0.253,0.254,0.2619,0.2626,0.2599,0.2602,0.2605,0.2606,0,0,0,0,0,0,0,0.2323,0.2328,0.2362,0.236,0.2363,0.237,0.2375,0.243,0.2465,0.2405,0.2407,0.2406,0.2523,0.2534,0.2544,0.2628,0.2598,0.2604,0.2607,0.2609,0.2793,0.2794,0,0,0,0,0,0,0.2312,0.2326,0.2361,0.2363,0.2341,0.237,0.2376,0.2387,0.2462,0.2472,0.2406,0.2407,0.2524,0.2537,0.255,0.2649,0.2605,0.261,0.2613,0.2792,0.2793,0.2795,0,0,0,0,0,0,0.2311,0.2315,0.2359,0.2342,0.2348,0.2371,0.2383,0.2388,0.2401,0.2461,0.2473,0.2414,0.2525,0.2542,0.2593,0.2653,0.2613,0.2618,0.279,0.2792,0.2794,0.2811,0,0,0,0,0,0,0.231,0.2315,0.2318,0.2342,0.2348,0.2382,0.2382,0.2388,0.2399,0.2402,0.2472,0.2486,0.2527,0.2583,0.2598,0.266,0.2622,0.2788,0.2791,0.2793,0.2809,0.2814,0.2818,0,0,0,0,0,0.2308,0.2303,0.2319,0.2322,0.2353,0.2382,0.2387,0.2406,0.2399,0.2416,0.2446,0.2484,0.2612,0.2588,0.2606,0.2671,0.2787,0.279,0.2793,0.2807,0.2813,0.2818,0,0,0,0,0,0,0.228,0.2307,0.2324,0.2328,0.2361,0.2387,0.2395,0.2403,0.2438,0.2445,0.2488,0.2504,0.257,0.261,0.2583,0.273,0.2712,0.2719,0.2717,0.2723,0.2727,0.272,0.2627,0,0,0,0,0,0.2277,0.2286,0.232,0.2327,0.2344,0.237,0.238,0.2402,0.2431,0.2445,0.2492,0.2547,0.2597,0.2647,0.2692,0.2774,0.2799,0.2831,0.2835,0.2838,0.2844,0.2915,0.2927,0.2805,0.2805,0.2805,0,0,0.2268,0.2282,0.2288,0.2322,0.2348,0.2382,0.2379,0.2406,0.2442,0.246,0.2521,0.2553,0.2612,0.2694,0.2733,0.2741,0.2886,0.2842,0.2845,0.2849,0.292,0.2932,0.2942,0.2807,0.2807,0.2806,0,0,0.226,0.2273,0.2288,0.2318,0.2359,0.2385,0.2392,0.2436,0.2466,0.2523,0.254,0.2592,0.2688,0.2741,0.2778,0.2834,0.2885,0.287,0.2919,0.2988,0.2999,0.3008,0.3049,0.3062,0.2899,0.2899,0.2899,0,0.2242,0.2274,0.2297,0.2327,0.2357,0.2386,0.2427,0.2459,0.2514,0.2555,0.2552,0.2676,0.2712,0.2813,0.2829,0.2848,0.2886,0.2893,0.2994,0.3004,0.3014,0.3053,0.3067,0.29,0.29,0.29,0.29,0,0.2264,0.2288,0.2298,0.2354,0.2395,0.2427,0.2487,0.2532,0.2567,0.2611,0.2707,0.2749,0.2833,0.2859,0.2861,0.2965,0.2967,0.2968,0.2977,0.3027,0.3065,0.308,0.2902,0.2901,0.2901,0.2901,0,0,0.2208,0.2296,0.2296,0.2341,0.2414,0.2452,0.2524,0.2607,0.266,0.2729,0.2812,0.2884,0.2912,0.2952,0.2979,0.3039,0.3119,0.304,0.3043,0.3074,0.3267,0.3195,0.3204,0.3149,0.3152,0.3154,0.3263,0,0.2215,0.2276,0.2326,0.2397,0.2443,0.2511,0.2582,0.2667,0.2732,0.2816,0.2886,0.2963,0.2951,0.2996,0.3056,0.3103,0.316,0.3088,0.3219,0.3222,0.3149,0.3219,0.2962,0.3032,0.3277,0.3279,0.3281,0,0.2212,0.2262,0.2337,0.2447,0.2476,0.2525,0.2654,0.2726,0.2848,0.2904,0.2998,0.3043,0.3146,0.3112,0.3247,0.321,0.3237,0.3262,0.3268,0.3206,0.3179,0.3025,0.3049,0.3305,0.3303,0.3302,0.33,0,0.2171,0.2261,0.2326,0.236,0.2492,0.2548,0.2625,0.2753,0.2833,0.2959,0.3031,0.3145,0.3232,0.3287,0.3341,0.3311,0.3472,0.3441,0.3401,0.3395,0.3202,0.3175,0.3523,0.3523,0.3523,0.3523,0.3522,0,0.2149,0.2192,0.2308,0.2342,0.2428,0.2543,0.2648,0.2729,0.2873,0.2968,0.3074,0.3157,0.3284,0.3384,0.3393,0.3454,0.3527,0.342,0.343,0.3199,0.3172,0.3426,0.3413,0.3527,0.3526,0.3525,0.3524,0,0.2085,0.216,0.2232,0.2366,0.2407,0.2474,0.2637,0.2716,0.2862,0.2988,0.3036,0.3217,0.3338,0.3437,0.3549,0.3537,0.3578,0.3571,0.3279,0.3252,0.3435,0.3422,0.3542,0.354,0.3539,0.3538,0.3538,0,0.2063,0.2094,0.2217,0.2262,0.2316,0.243,0.2511,0.2677,0.277,0.2996,0.3054,0.3232,0.3304,0.3468,0.3478,0.3515,0.3573,0.3305,0.3186,0.3445,0.3443,0.3432,0.3421,0.2936,0.293,0.2926,0.2922,0,0.2017,0.2053,0.211,0.2194,0.2272,0.2359,0.2488,0.2552,0.2757,0.2856,0.2982,0.3054,0.323,0.3169,0.3267,0.3243,0.3275,0.3211,0.3594,0.2967,0.2882,0.2877,0.2885,0.288,0.2885,0.2888,0.289,0.2892,0.1969,0.198,0.2053,0.212,0.2205,0.227,0.2288,0.2424,0.2521,0.264,0.279,0.2821,0.2917,0.291,0.2862,0.286,0.3062,0.2943,0.2954,0.2971,0.2878,0.2795,0.2759,0.2762,0.2765,0.2767,0.277,0,0.1908,0.1931,0.1986,0.2049,0.2075,0.2161,0.2259,0.2247,0.2278,0.2422,0.2479,0.2337,0.2339,0.244,0.2368,0.2409,0.2358,0.2328,0.2228,0.2273,0.2312,0.218,0.1879,0.1876,0.1873,0.187,0,0,0.188,0.1883,0.19,0.1904,0.1942,0.1926,0.1937,0.1932,0.2,0.1991,0.2007,0.2186,0.2339,0.2041,0.2048,0.1943,0.2079,0.1879,0.26,0.2524,0.2558,0.2686,0.2538,0,0,0,0,0]},{"header":{"parameterUnit":"m.s-1","parameterCategory":2,"la1":30.2991,"la2":30.254,"lo1":-89.0895,"lo2":-89.0444,"dy":0.0017,"dx":0.0017,"nx":28,"ny":28,"refTime":"2025-04-14T21:00:00:Z","depth":"2","parameterNumber":3,"parameterNumberName":"V-component_of_CURRENTS"},"data":[0,0,0,0,0,0,0,0,0,0,0,0,0,0,0,0,0,0,0,0,0,0,0,0,0,0,0,0,0,0,0,0,0,0,0,0,0,0,0,0,0,0,0,0,0,0,0,0,0,0,0,0,0,0,0,0,0,0,-0.0185,-0.0187,0,-0.0302,-0.0303,-0.0305,-0.0392,-0.0393,-0.0393,-0.0394,-0.0555,-0.0559,-0.0562,0,0,0,0,0,0,0,0,0,0,0,0,0,-0.0041,-0.0043,-0.0185,-0.0187,-0.0188,-0.0301,-0.0303,-0.0305,-0.0392,-0.0393,-0.0394,-0.0394,-0.0554,-0.0558,-0.0563,0,0,0,0,0,0,0,0,0,0,0,0,0,-0.0127,-0.0044,-0.0185,-0.0243,-0.025,-0.0301,-0.0303,-0.0305,-0.0392,-0.0393,-0.0394,-0.0395,-0.0552,-0.0558,-0.0563,-0.058,0,0,-0.058,-0.0583,0,0,0,0,0,0,0,0,-0.0122,-0.0133,-0.0234,-0.024,-0.0247,-0.0331,-0.0311,-0.0399,-0.0392,-0.034,-0.0394,-0.0395,-0.0482,-0.0494,-0.0516,-0.0587,-0.0594,-0.0581,-0.0584,-0.0587,-0.0588,0,0,0,0,0,0,0,-0.0116,-0.0128,-0.0234,-0.0235,-0.0243,-0.0264,-0.0278,-0.0328,-0.0407,-0.0345,-0.0351,-0.036,-0.0487,-0.051,-0.052,-0.0596,-0.0581,-0.0586,-0.0589,-0.0591,-0.0669,-0.0667,0,0,0,0,0,0,-0.0097,-0.0123,-0.023,-0.0237,-0.0183,-0.0266,-0.0281,-0.0305,-0.0406,-0.0421,-0.0359,-0.0364,-0.05,-0.0514,-0.0526,-0.054,-0.0587,-0.0592,-0.0595,-0.067,-0.0668,-0.0667,0,0,0,0,0,0,-0.0093,-0.0106,-0.0225,-0.0179,-0.0196,-0.0267,-0.0294,-0.0307,-0.0332,-0.0416,-0.0433,-0.0371,-0.0502,-0.0519,-0.0542,-0.0547,-0.0594,-0.0599,-0.0671,-0.0669,-0.0668,-0.0574,0,0,0,0,0,0,-0.0089,-0.0104,-0.0109,-0.0179,-0.0198,-0.0256,-0.0293,-0.0308,-0.0336,-0.0343,-0.0431,-0.0447,-0.0504,-0.0533,-0.0547,-0.0556,-0.0604,-0.0673,-0.067,-0.0668,-0.0579,-0.0569,-0.0561,0,0,0,0,0,-0.0084,-0.0086,-0.0109,-0.0121,-0.0204,-0.0256,-0.0268,-0.0322,-0.0335,-0.0348,-0.038,-0.0445,-0.0529,-0.0535,-0.0553,-0.0563,-0.0674,-0.0671,-0.0668,-0.0583,-0.0571,-0.0561,0,0,0,0,0,0,-0.0026,-0.0097,-0.0123,-0.0148,-0.0197,-0.027,-0.0282,-0.0313,-0.035,-0.0354,-0.0423,-0.044,-0.0461,-0.0515,-0.0521,-0.0575,-0.0615,-0.0616,-0.0544,-0.0534,-0.0525,-0.0499,-0.0608,0,0,0,0,0,-0.0013,-0.0037,-0.0106,-0.0125,-0.0147,-0.021,-0.0233,-0.0273,-0.0316,-0.0335,-0.0389,-0.0437,-0.0463,-0.0498,-0.0535,-0.0568,-0.0596,-0.0586,-0.0577,-0.0569,-0.0557,-0.0584,-0.0577,-0.0657,-0.0657,-0.0657,0,0,0.0003,-0.0037,-0.0052,-0.0114,-0.0157,-0.0174,-0.0228,-0.0265,-0.0269,-0.0345,-0.0362,-0.0403,-0.0457,-0.0483,-0.0501,-0.0534,-0.0558,-0.0565,-0.0559,-0.0551,-0.0581,-0.0573,-0.0566,-0.0655,-0.0656,-0.0656,0,0,0.0026,-0.0012,-0.0025,-0.0056,-0.0113,-0.0148,-0.0152,-0.0222,-0.0244,-0.0264,-0.0303,-0.0331,-0.0401,-0.0433,-0.0456,-0.0419,-0.0495,-0.0448,-0.0405,-0.0431,-0.0425,-0.042,-0.0431,-0.0428,-0.0462,-0.0461,-0.0461,0,0.0054,0.0026,-0.0034,-0.0047,-0.006,-0.0126,-0.0131,-0.0156,-0.0219,-0.0222,-0.0258,-0.0313,-0.037,-0.0376,-0.0369,-0.0401,-0.0425,-0.0443,-0.0419,-0.0415,-0.0412,-0.0424,-0.0422,-0.0456,-0.0457,-0.0458,-0.0458,0,0.0063,0.0052,0.0046,0.0011,-0.0014,-0.0027,-0.0071,-0.0083,-0.0112,-0.0141,-0.0156,-0.022,-0.0258,-0.0285,-0.0322,-0.0326,-0.0351,-0.0391,-0.0446,-0.0398,-0.0414,-0.0413,-0.045,-0.0451,-0.0453,-0.0454,0,0,0.0112,0.0063,0.0066,0.0069,0.0019,0.0006,0.001,-0.0005,0.0025,-0.0046,-0.0024,-0.0087,-0.0133,-0.0159,-0.0219,-0.0254,-0.0253,-0.0316,-0.0319,-0.0324,-0.0301,-0.0327,-0.033,-0.0297,-0.0296,-0.0296,-0.0318,0,0.0145,0.0145,0.0107,0.0129,0.0129,0.009,0.0108,0.009,0.0073,0.0081,0.0014,0.0006,-0.0081,-0.0101,-0.0146,-0.0218,-0.0249,-0.0243,-0.0349,-0.0352,-0.038,-0.0329,-0.0305,-0.0324,-0.0317,-0.0317,-0.0317,0,0.0175,0.0174,0.0188,0.02,0.0198,0.021,0.0239,0.0242,0.0239,0.0222,0.0189,0.0135,0.0083,0.0001,-0.0106,-0.0102,-0.019,-0.0254,-0.0258,-0.0314,-0.0377,-0.0375,-0.0323,-0.0317,-0.0317,-0.0317,-0.0317,0,0.024,0.0243,0.0263,0.0263,0.0257,0.0279,0.0286,0.029,0.0321,0.0311,0.0333,0.025,0.0224,0.01,-0.0053,-0.0081,-0.0164,-0.0222,-0.0321,-0.0323,-0.0339,-0.0343,-0.0286,-0.0286,-0.0286,-0.0286,-0.0286,0,0.0295,0.0321,0.0306,0.0321,0.0382,0.0346,0.042,0.042,0.0443,0.0501,0.0408,0.0434,0.0245,0.0165,0.0005,-0.0146,-0.0125,-0.0292,-0.0327,-0.0304,-0.0305,-0.0336,-0.0342,-0.0287,-0.0287,-0.0287,-0.0287,0,0.0359,0.0342,0.0379,0.0393,0.0409,0.0452,0.0506,0.0566,0.057,0.0646,0.0644,0.0581,0.0469,0.0286,0.01,-0.0052,-0.0208,-0.027,-0.0222,-0.0252,-0.0363,-0.0363,-0.0373,-0.0374,-0.0375,-0.0376,-0.0376,0,0.0383,0.0403,0.0442,0.0481,0.0493,0.0555,0.0608,0.0625,0.0696,0.0741,0.0793,0.0713,0.0663,0.0388,0.0111,-0.0148,-0.0192,-0.0293,-0.035,-0.0336,-0.037,-0.0369,-0.0368,-0.0326,-0.0326,-0.0326,-0.0326,0,0.0438,0.0452,0.0487,0.0569,0.0631,0.0709,0.0789,0.0864,0.0901,0.096,0.1011,0.0968,0.0712,0.0451,0.0099,-0.0085,-0.0256,-0.0305,-0.0291,-0.0313,-0.0295,-0.0327,-0.0327,-0.0327,-0.0327,-0.0327,-0.0327,-0.0327,0.0487,0.053,0.058,0.0666,0.0746,0.0856,0.0935,0.1024,0.1128,0.1208,0.116,0.1101,0.081,0.0354,0.0052,-0.0261,-0.0262,-0.0379,-0.0376,-0.0375,-0.0371,-0.0356,-0.0398,-0.0398,-0.0398,-0.0398,-0.0399,0,0.0541,0.0593,0.0675,0.0775,0.0878,0.0905,0.1053,0.113,0.1256,0.1299,0.1306,0.1038,0.0735,0.041,-0.0053,-0.0341,-0.0368,-0.0427,-0.0392,-0.0389,-0.0387,-0.0383,-0.0414,-0.0415,-0.0415,-0.0416,0,0,0.057,0.0654,0.0698,0.0865,0.0946,0.1084,0.117,0.1278,0.1345,0.1386,0.1347,0.1226,0.0836,0.0504,0.0118,-0.014,-0.0203,-0.02,-0.0159,-0.0069,-0.0063,-0.0332,-0.032,0,0,0,0,0]}],[{"header":{"parameterUnit":"m.s-1","parameterCategory":2,"la1":30.2991,"la2":30.254,"lo1":-89.0895,"lo2":-89.0444,"dy":0.0017,"dx":0.0017,"nx":28,"ny":28,"refTime":"2025-04-14T21:00:00:Z","depth":"4","parameterNumber":2,"parameterNumberName":"U-component_of_CURRENTS"},"data":[0,0,0,0,0,0,0,0,0,0,0,0,0,0,0,0,0,0,0,0,0,0,0,0,0,0,0,0,0,0,0,0,0,0,0,0,0,0,0,0,0,0,0,0,0,0,0,0,0,0,0,0,0,0,0,0,0,0,0.1264,0.1264,0,0.1299,0.1299,0.1299,0.1345,0.1346,0.1347,0.1348,0.1326,0.1324,0.1323,0,0,0,0,0,0,0,0,0,0,0,0,0,0.1198,0.1199,0.1264,0.1264,0.1265,0.1299,0.1299,0.1299,0.1345,0.1346,0.1347,0.1348,0.1326,0.1324,0.1323,0,0,0,0,0,0,0,0,0,0,0,0,0,0.1228,0.12,0.1263,0.1293,0.1296,0.1298,0.1299,0.1299,0.1345,0.1346,0.1347,0.1349,0.1327,0.1324,0.1322,0.1283,0,0,0.1316,0.1315,0,0,0,0,0,0,0,0,0.1226,0.123,0.1288,0.1291,0.1294,0.132,0.1268,0.1292,0.1344,0.1325,0.1348,0.1349,0.1318,0.1317,0.132,0.1282,0.1281,0.1316,0.1315,0.1314,0.1313,0,0,0,0,0,0,0,0.1224,0.1229,0.1276,0.1288,0.1292,0.1291,0.1297,0.1273,0.1312,0.1327,0.133,0.1336,0.132,0.1322,0.1319,0.1281,0.1316,0.1314,0.1313,0.1312,0.1405,0.1408,0,0,0,0,0,0,0.1223,0.1227,0.1275,0.1277,0.1264,0.1291,0.1298,0.1309,0.1313,0.1316,0.1335,0.1338,0.1324,0.1322,0.1318,0.1386,0.1314,0.1312,0.131,0.1401,0.1406,0.141,0,0,0,0,0,0,0.1222,0.1227,0.1274,0.1254,0.126,0.1291,0.1304,0.1309,0.1347,0.132,0.1322,0.1372,0.1325,0.1321,0.1362,0.1381,0.1311,0.1309,0.1397,0.1403,0.1408,0.1448,0,0,0,0,0,0,0.122,0.1227,0.1249,0.1254,0.1261,0.1304,0.1303,0.1309,0.1347,0.1353,0.1351,0.1349,0.1326,0.1366,0.136,0.1377,0.1307,0.1392,0.1399,0.1406,0.1442,0.1454,0.1465,0,0,0,0,0,0.1218,0.1235,0.125,0.1257,0.1286,0.1306,0.131,0.1334,0.1348,0.1372,0.1396,0.1351,0.1407,0.1367,0.1359,0.1376,0.1389,0.1397,0.1405,0.1437,0.1452,0.1464,0,0,0,0,0,0,0.1216,0.1242,0.1258,0.1284,0.1309,0.1315,0.1339,0.1353,0.1389,0.1404,0.1383,0.1383,0.1443,0.1414,0.1371,0.1436,0.1395,0.1402,0.1422,0.1436,0.1447,0.1481,0.1305,0,0,0,0,0,0.1226,0.1254,0.1273,0.13,0.1313,0.1333,0.135,0.1368,0.1391,0.141,0.1415,0.1433,0.1464,0.1455,0.1484,0.1483,0.1486,0.1502,0.1514,0.1523,0.1555,0.1584,0.1599,0.1437,0.1437,0.1437,0,0,0.1232,0.1252,0.1269,0.1303,0.1323,0.1346,0.1347,0.1384,0.1414,0.1397,0.1453,0.1483,0.1488,0.1526,0.1544,0.1497,0.1573,0.1534,0.154,0.1568,0.1594,0.1609,0.1622,0.1443,0.1442,0.1441,0,0,0.1248,0.128,0.1305,0.1329,0.1368,0.1379,0.1398,0.1429,0.146,0.1511,0.1531,0.1585,0.1597,0.1613,0.1617,0.1707,0.166,0.1713,0.1751,0.1777,0.179,0.1801,0.1814,0.1826,0.1682,0.1682,0.1682,0,0.1264,0.1289,0.1317,0.1344,0.1364,0.1398,0.1422,0.1455,0.1503,0.1532,0.1545,0.1646,0.1643,0.1693,0.174,0.1726,0.1736,0.168,0.1787,0.1798,0.1808,0.182,0.1833,0.1685,0.1684,0.1684,0.1684,0,0.1283,0.1318,0.1335,0.1382,0.1408,0.1438,0.1477,0.1524,0.1567,0.1598,0.1697,0.1731,0.1778,0.1793,0.1789,0.1866,0.1849,0.1818,0.1736,0.1826,0.1834,0.1846,0.1689,0.1688,0.1687,0.1686,0,0,0.1285,0.1338,0.1351,0.1378,0.143,0.1454,0.151,0.1564,0.1621,0.1689,0.175,0.184,0.1873,0.189,0.1897,0.1927,0.2,0.1907,0.1907,0.1894,0.2062,0.1928,0.1928,0.1979,0.1981,0.1984,0.2031,0,0.1298,0.1344,0.137,0.1425,0.1446,0.1494,0.1543,0.1604,0.167,0.1741,0.1799,0.1885,0.1898,0.1941,0.1973,0.2017,0.2039,0.1991,0.2003,0.2004,0.185,0.194,0.1993,0.204,0.2043,0.2045,0.2046,0,0.1304,0.1334,0.138,0.1444,0.1462,0.1511,0.1601,0.1653,0.1747,0.1802,0.1886,0.194,0.2027,0.2018,0.212,0.209,0.2094,0.2115,0.2115,0.1991,0.1894,0.194,0.2068,0.2066,0.2064,0.2063,0.2062,0,0.1276,0.1343,0.1381,0.1403,0.148,0.1529,0.1584,0.1682,0.1742,0.1859,0.1927,0.2016,0.2087,0.2128,0.2182,0.2157,0.2276,0.2217,0.2102,0.2091,0.2172,0.216,0.2283,0.2283,0.2283,0.2283,0.2283,0,0.126,0.1302,0.1385,0.1409,0.1472,0.1535,0.1627,0.1697,0.1805,0.1873,0.197,0.2043,0.213,0.2194,0.2206,0.2202,0.2284,0.2145,0.2106,0.2189,0.2179,0.2179,0.2166,0.2285,0.2284,0.2284,0.2284,0,0.1224,0.1275,0.133,0.1425,0.146,0.1515,0.1641,0.1704,0.183,0.1921,0.1967,0.2094,0.2176,0.2238,0.2304,0.223,0.2237,0.2205,0.2311,0.2272,0.2024,0.2013,0.2071,0.2067,0.2063,0.206,0.2058,0,0.1206,0.123,0.1333,0.1365,0.142,0.151,0.1562,0.1695,0.1741,0.1936,0.1948,0.2099,0.2157,0.2157,0.2218,0.2216,0.2187,0.2164,0.2091,0.2052,0.2009,0.2004,0.1998,0.2053,0.2052,0.2051,0.205,0,0.1172,0.1225,0.1266,0.1324,0.1393,0.1446,0.1525,0.1557,0.1695,0.1834,0.1905,0.1964,0.2038,0.2071,0.2094,0.2085,0.2166,0.2127,0.2133,0.2064,0.203,0.1989,0.1988,0.2038,0.204,0.2041,0.2042,0,0.1148,0.1167,0.1223,0.1268,0.1336,0.1352,0.1413,0.1463,0.1536,0.1725,0.1743,0.19,0.2018,0.2004,0.2025,0.2011,0.1965,0.1884,0.1901,0.1915,0.184,0.1773,0.1693,0,0,0,0,0,0.1102,0.1112,0.1154,0.1188,0.1249,0.1287,0.1362,0.1418,0.155,0.1556,0.1646,0.1707,0.1773,0.1845,0.1796,0.1933,0.196,0.1865,0.1872,0.1972,0.1986,0.1911,0,0,0,0,0,0,0.1065,0.1106,0.1123,0.1111,0.112,0.1172,0.1221,0.1312,0.1298,0.1448,0.1485,0.1604,0.1678,0.1793,0.177,0.1786,0.1752,0.195,0.1945,0.1964,0.1977,0.1988,0.1915,0,0,0,0,0]},{"header":{"parameterUnit":"m.s-1","parameterCategory":2,"la1":30.2991,"la2":30.254,"lo1":-89.0895,"lo2":-89.0444,"dy":0.0017,"dx":0.0017,"nx":28,"ny":28,"refTime":"2025-04-14T21:00:00:Z","depth":"4","parameterNumber":3,"parameterNumberName":"V-component_of_CURRENTS"},"data":[0,0,0,0,0,0,0,0,0,0,0,0,0,0,0,0,0,0,0,0,0,0,0,0,0,0,0,0,0,0,0,0,0,0,0,0,0,0,0,0,0,0,0,0,0,0,0,0,0,0,0,0,0,0,0,0,0,0,0.0064,0.0064,0,0.0005,0.0005,0.0004,-0.0027,-0.0027,-0.0027,-0.0027,0.0067,0.007,0.0072,0,0,0,0,0,0,0,0,0,0,0,0,0,0.0146,0.0145,0.0064,0.0064,0.0063,0.0005,0.0005,0.0004,-0.0027,-0.0027,-0.0027,-0.0027,0.0066,0.0069,0.0072,0,0,0,0,0,0,0,0,0,0,0,0,0,0.0102,0.0145,0.0065,0.004,0.0037,0.0006,0.0005,0.0004,-0.0027,-0.0027,-0.0027,-0.0028,0.0065,0.0069,0.0073,0.0101,0,0,0.0085,0.0087,0,0,0,0,0,0,0,0,0.0105,0.0099,0.0044,0.0041,0.0038,-0.0004,0.0068,0.0044,-0.0027,-0.0002,-0.0027,-0.0028,0.0057,0.0062,0.005,0.0106,0.011,0.0085,0.0088,0.0089,0.0091,0,0,0,0,0,0,0,0.0108,0.0102,0.0042,0.0043,0.004,0.003,0.0024,0.0063,0.0033,-0.0004,-0.0007,-0.0014,0.0057,0.0046,0.0052,0.0111,0.0085,0.0089,0.0091,0.0093,0.0177,0.0177,0,0,0,0,0,0,0.0114,0.0104,0.0044,0.004,0.0071,0.0029,0.0022,0.001,0.0029,0.003,-0.0014,-0.0016,0.0039,0.0048,0.0056,0.0096,0.0089,0.0093,0.0095,0.0177,0.0177,0.0177,0,0,0,0,0,0,0.0116,0.0109,0.0046,0.0071,0.0062,0.0028,0.0015,0.0009,-0.0005,0.0019,0.0024,-0.0023,0.0039,0.005,0.008,0.01,0.0095,0.0098,0.0178,0.0177,0.0177,0.0174,0,0,0,0,0,0,0.0118,0.011,0.0105,0.0071,0.0061,0.0028,0.0015,0.0008,-0.001,-0.0012,0.0014,0.0022,0.004,0.0074,0.0084,0.0105,0.0102,0.0178,0.0177,0.0177,0.0175,0.0174,0.0174,0,0,0,0,0,0.0121,0.0113,0.0105,0.0098,0.0055,0.0028,0.0022,-0.0002,-0.001,-0.0015,-0.0004,0.0021,0.008,0.0077,0.0089,0.0112,0.0178,0.0177,0.0177,0.0175,0.0174,0.0174,0,0,0,0,0,0,0.0144,0.0107,0.0099,0.0079,0.0058,0.0023,0.0013,-0.0002,-0.0001,0.0001,0.0023,0.0032,0.0063,0.0084,0.0081,0.0132,0.0132,0.0134,0.0126,0.0126,0.0126,0.0124,0.0105,0,0,0,0,0,0.0148,0.0134,0.01,0.0087,0.0075,0.0046,0.0032,0.0016,0.0009,0.0007,0.0025,0.0048,0.0071,0.0095,0.0115,0.0154,0.0132,0.0173,0.0173,0.0172,0.0177,0.0135,0.013,0.0176,0.0176,0.0176,0,0,0.0153,0.0132,0.0124,0.0091,0.0072,0.0065,0.0037,0.0016,0.002,0.0024,0.0042,0.0048,0.0076,0.0106,0.0123,0.013,0.0145,0.0172,0.0172,0.0176,0.0134,0.0129,0.0125,0.0176,0.0176,0.0176,0,0,0.0158,0.0138,0.0129,0.0116,0.0088,0.0074,0.007,0.004,0.0035,0.0048,0.0047,0.0054,0.0102,0.0112,0.0129,0.0141,0.0136,0.0157,0.0169,0.0128,0.0123,0.0119,0.0072,0.0064,0.0166,0.0166,0.0166,0,0.0168,0.0155,0.0123,0.0118,0.0118,0.0082,0.0087,0.0075,0.0063,0.0071,0.0058,0.0085,0.0103,0.0134,0.0131,0.0142,0.0113,0.0171,0.0126,0.0122,0.0118,0.007,0.0061,0.0166,0.0166,0.0166,0.0166,0,0.0169,0.0165,0.016,0.0148,0.0144,0.0139,0.0125,0.0126,0.0118,0.0109,0.0121,0.0115,0.0133,0.0136,0.0142,0.0136,0.0121,0.012,0.0126,0.0113,0.0064,0.0054,0.0166,0.0166,0.0166,0.0166,0,0,0.018,0.0164,0.0166,0.0178,0.0164,0.0164,0.0178,0.0182,0.0195,0.0172,0.018,0.0188,0.0166,0.018,0.0175,0.014,0.0076,0.0123,0.0121,0.0073,-0.0025,-0.003,-0.0041,0.0065,0.0064,0.0063,-0.0053,0,0.0196,0.0202,0.0193,0.0219,0.0226,0.0221,0.024,0.0242,0.0238,0.0235,0.0207,0.0212,0.0191,0.0193,0.0151,0.0102,0.0054,0.0107,-0.0002,-0.0005,-0.0011,-0.0051,0.0059,-0.006,-0.0062,-0.0064,-0.0065,0,0.0207,0.0213,0.0236,0.0266,0.027,0.0285,0.032,0.0332,0.0322,0.0314,0.0296,0.0267,0.0228,0.0195,0.0088,0.0123,0.0049,-0.0006,-0.0012,-0.0019,-0.0027,-0.004,-0.0082,-0.008,-0.0079,-0.0078,-0.0077,0,0.0237,0.0253,0.0279,0.0286,0.0304,0.0329,0.0348,0.0358,0.038,0.0359,0.0358,0.03,0.0268,0.017,0.0062,0.0071,-0.0081,-0.008,-0.016,-0.0162,-0.012,-0.0114,-0.0177,-0.0177,-0.0177,-0.0176,-0.0176,0,0.026,0.0285,0.0295,0.031,0.0358,0.0364,0.0414,0.0422,0.0428,0.0449,0.0398,0.0383,0.0256,0.0163,0.0058,-0.0082,-0.0086,-0.0171,-0.0194,-0.012,-0.0113,-0.0128,-0.0121,-0.0181,-0.018,-0.0179,-0.0178,0,0.0286,0.0288,0.0323,0.0352,0.0369,0.0406,0.0461,0.0493,0.0493,0.0512,0.0506,0.0433,0.0312,0.0177,0.0006,-0.0078,-0.0212,-0.0264,-0.0185,-0.02,-0.0268,-0.026,-0.0366,-0.0367,-0.0368,-0.0369,-0.037,0,0.0294,0.031,0.0357,0.0386,0.0402,0.0456,0.0496,0.0522,0.055,0.0544,0.0545,0.0444,0.0378,0.0136,-0.0016,-0.0232,-0.0256,-0.0332,-0.0295,-0.0277,-0.0289,-0.0279,-0.0269,-0.0371,-0.0371,-0.0372,-0.0372,0,0.0315,0.0332,0.0364,0.0421,0.0468,0.0526,0.0577,0.0599,0.0624,0.0623,0.0583,0.0469,0.0323,0.0139,-0.0035,-0.0185,-0.0282,-0.0343,-0.0341,-0.0308,-0.0285,-0.0293,-0.0283,-0.0375,-0.0375,-0.0375,-0.0374,0,0.0335,0.0363,0.0404,0.046,0.0523,0.0576,0.0601,0.0628,0.0653,0.064,0.0619,0.0479,0.0392,0.016,0.0002,-0.0149,-0.0182,-0.0221,-0.0226,-0.0224,-0.0144,-0.0092,-0.0154,0,0,0,0,0,0.035,0.0386,0.0439,0.05,0.0565,0.0603,0.0649,0.0664,0.0678,0.0663,0.0647,0.0519,0.0294,0.019,0.0038,-0.0032,-0.0223,-0.0217,-0.0273,-0.0395,-0.0391,-0.0321,0,0,0,0,0,0,0.036,0.0412,0.0441,0.0527,0.0578,0.0649,0.0682,0.0687,0.0671,0.0663,0.0544,0.0491,0.0264,0.0393,0.0043,-0.0006,-0.0062,-0.0323,-0.0326,-0.0397,-0.0394,-0.039,-0.0317,0,0,0,0,0]}]]